Regional Weather Roundup
Issued by NWS

Home | Current Version | Previous Version | Text Only | Print | Product List | Glossary Off
Versions: 1 2 3 4 5 6 7 8 9 10 11 12 13 14 15 16 17 18 19 20 21 22 23 24 25 26 27 28 29 30 31 32 33 34 35 36 37 38 39 40 41 42 43 44 45 46 47 48 49 50

000
ASUS43 KOAX 281302
RWRNE

WEATHER ROUNDUP FOR NEBRASKA
NATIONAL WEATHER SERVICE OMAHA NE
800 AM CDT SAT MAR 28 2015

NOTES: SATELLITE DATA IS BEING USED TO AUGMENT CLOUD COVER ABOVE
       12000 FEET.
       "FAIR" INDICATES FEW OR NO CLOUDS BELOW 12,000 FEET WITH NO
       SIGNIFICANT WEATHER AND/OR OBSTRUCTIONS TO VISIBILITY.

  * THESE STATIONS DO NOT REPORT WEATHER SUCH AS RAIN...SNOW OR FOG.

NEZ001>004-019>022-054>056-281400-
NEBRASKA PANHANDLE

CITY           SKY/WX    TMP DP  RH WIND       PRES   REMARKS
SCOTTSBLUFF    CLEAR     32  25  75 CALM      30.00R
ALLIANCE       CLEAR     26  24  92 S5        29.98R WCI  20
CHADRON        CLEAR     31  27  85 S5        29.96R WCI  26
KIMBALL        CLEAR     39  28  63 W10       30.02S WCI  32
SIDNEY         CLEAR     39  27  62 NW14      30.01R WCI  31
$$

NEZ057>060-069>072-079>082-281400-
SOUTHWEST NEBRASKA

CITY           SKY/WX    TMP DP  RH WIND       PRES   REMARKS
NORTH PLATTE   CLEAR     28  26  92 CALM      30.00S
IMPERIAL         N/A     34  27  75 W6        30.01R WCI  29
MCCOOK         CLEAR     34  29  82 NE3       30.01R
$$

NEZ005>010-023>029-035>040-094-281400-
NORTH CENTRAL NEBRASKA

CITY           SKY/WX    TMP DP  RH WIND       PRES   REMARKS
VALENTINE      CLEAR     27  25  92 W3        30.00R
AINSWORTH      CLEAR     32  30  94 S5        29.99S WCI  27
BROKEN BOW     CLEAR     25  22  88 CALM      30.00R
ORD            CLEAR     25  21  85 CALM      30.03R
$$

NEZ041-046>049-061>064-073>077-083>087-281400-
SOUTH CENTRAL NEBRASKA

CITY           SKY/WX    TMP DP  RH WIND       PRES   REMARKS
GRAND ISLAND   CLEAR     30  25  81 SE8       30.05R WCI  22
AURORA         CLEAR     31  27  86 SE9       30.05S WCI  23
HASTINGS       CLEAR     30  24  78 E9        30.03R WCI  22
HEBRON         CLEAR     30  25  79 E5        30.07R WCI  25
KEARNEY *      CLEAR     23  19  86 E3        30.03R
$$

NEZ011>018-030>034-042>045-281400-
NORTHEAST NEBRASKA

CITY           SKY/WX    TMP DP  RH WIND       PRES   REMARKS
NORFOLK        CLEAR     29  23  78 SE9       30.08R WCI  20
ALBION         CLEAR     28  24  84 SE3       30.06R
BLAIR          CLEAR     32  27  80 SE8       30.12R WCI  25
COLUMBUS *     CLEAR     28  19  69 E6        30.11R WCI  22
TEKAMAH        CLEAR     31  25  78 SE5       30.15R WCI  26
$$

NEZ050>053-065>068-078-088>093-281400-
SOUTHEAST NEBRASKA

CITY           SKY/WX    TMP DP  RH WIND       PRES   REMARKS
LINCOLN        CLEAR     32  26  78 E9        30.12R WCI  24
OMAHA EPPLEY   PTCLDY    33  26  75 SE9       30.14R WCI  25
BEATRICE       CLEAR     32  26  78 E6        30.09R WCI  26
FALLS CITY     PTCLDY    34  27  75 E13       30.13R WCI  25
NEBRASKA CITY  CLEAR     32  27  83 E9        30.13R WCI  24
PLATTSMOUTH    CLEAR     31  26  83 SE9       30.13S WCI  23
$$

NEZ044-045-051>053-067-281400-
OMAHA AREA

CITY           SKY/WX    TMP DP  RH WIND       PRES   REMARKS
OMAHA EPPLEY   PTCLDY    33  26  75 SE9       30.14R WCI  25
BLAIR          CLEAR     32  27  80 SE8       30.12R WCI  25
OFFUTT AFB     CLEAR     31  26  81 SE8       30.13R WCI  23
PLATTSMOUTH    CLEAR     31  26  83 SE9       30.13S WCI  23
WAHOO          FAIR      30  27  86 SE7       30.12R WCI  23
$$



USA.gov is the U.S. government's official web portal to all federal, state and local government web resources and services.